Station Historical Data
Daily Summary for May 13, 2017 Units:  English    Metric   Both
Next Day »
Daily Weekly Monthly Yearly Custom
  High: Low: Average:
Temperature: 58.1 °F 40.1 °F 48.3 °F
Dew Point: 39.5 °F 27.5 °F 34.4 °F
Humidity: 86% 32% 61%
Wind Speed: 8.0mph 0.0mph 1mph
Wind Gust: 12.0mph - -
Wind- - West
Pressure: 30.09 in 29.98 in -
Precipitation: 0.00 in    
Historical Graphs
 
 
Tabular Data for May 13, 2017
Time Temperature Dew Point Pressure Wind Wind Speed Wind Gust Humidity Rainfall Rate (Hourly) solar Conditions
00:01 45.1 °F 35.9 °F 30.06 in Calm     70% 0.00 in 0.00 W/m2
00:06 45.0 °F 35.8 °F 30.06 in WSW 1.0 mph 2.0 mph 70% 0.00 in 0.00 W/m2
00:11 44.8 °F 35.6 °F 30.06 in Calm     70% 0.00 in 0.00 W/m2
00:16 44.7 °F 35.9 °F 30.06 in Calm     71% 0.00 in 0.00 W/m2
00:21 44.5 °F 35.7 °F 30.06 in Calm     71% 0.00 in 0.00 W/m2
00:26 44.4 °F 36.0 °F 30.06 in Calm     72% 0.00 in 0.00 W/m2
00:31 44.3 °F 35.9 °F 30.06 in Calm     72% 0.00 in 0.00 W/m2
00:36 44.2 °F 35.8 °F 30.06 in Calm     72% 0.00 in 0.00 W/m2
00:41 44.2 °F 36.1 °F 30.06 in Calm     73% 0.00 in 0.00 W/m2
00:46 44.1 °F 36.0 °F 30.06 in Calm     73% 0.00 in 0.00 W/m2
00:51 44.0 °F 35.9 °F 30.06 in SSW 3.0 mph 3.0 mph 73% 0.00 in 0.00 W/m2
00:56 43.9 °F 35.8 °F 30.06 in Calm     73% 0.00 in 0.00 W/m2
01:01 43.8 °F 36.1 °F 30.06 in Calm     74% 0.00 in 0.00 W/m2
01:06 43.7 °F 36.0 °F 30.06 in Calm     74% 0.00 in 0.00 W/m2
01:11 43.7 °F 36.0 °F 30.06 in Calm     74% 0.00 in 0.00 W/m2
01:16 43.6 °F 36.2 °F 30.06 in Calm     75% 0.00 in 0.00 W/m2
01:21 43.6 °F 36.2 °F 30.05 in SSE 1.0 mph 6.0 mph 75% 0.00 in 0.00 W/m2
01:26 43.4 °F 36.0 °F 30.05 in SSE 6.0 mph 7.0 mph 75% 0.00 in 0.00 W/m2
01:31 43.4 °F 36.3 °F 30.05 in Calm   8.0 mph 76% 0.00 in 0.00 W/m2
01:36 43.3 °F 36.3 °F 30.05 in SE 2.0 mph 6.0 mph 76% 0.00 in 0.00 W/m2
01:41 43.2 °F 36.2 °F 30.05 in SSE 6.0 mph 6.0 mph 76% 0.00 in 0.00 W/m2
01:46 43.1 °F 36.1 °F 30.06 in Calm   5.0 mph 76% 0.00 in 0.00 W/m2
01:51 43.0 °F 36.0 °F 30.06 in Calm   2.0 mph 76% 0.00 in 0.00 W/m2
01:56 43.0 °F 36.0 °F 30.06 in Calm     76% 0.00 in 0.00 W/m2
02:01 43.0 °F 36.0 °F 30.06 in SSE 1.0 mph 1.0 mph 76% 0.00 in 0.00 W/m2
02:06 42.9 °F 35.9 °F 30.05 in Calm   4.0 mph 76% 0.00 in 0.00 W/m2
02:11 42.8 °F 35.8 °F 30.05 in Calm   7.0 mph 76% 0.00 in 0.00 W/m2
02:16 42.8 °F 35.8 °F 30.05 in SSE 6.0 mph 6.0 mph 76% 0.00 in 0.00 W/m2
02:21 42.7 °F 35.7 °F 30.05 in Calm     76% 0.00 in 0.00 W/m2
02:26 42.6 °F 35.6 °F 30.05 in Calm   4.0 mph 76% 0.00 in 0.00 W/m2
02:31 42.5 °F 35.5 °F 30.05 in Calm     76% 0.00 in 0.00 W/m2
02:37 42.4 °F 35.7 °F 30.05 in Calm   4.0 mph 77% 0.00 in 0.00 W/m2
02:42 42.4 °F 35.7 °F 30.05 in Calm   5.0 mph 77% 0.00 in 0.00 W/m2
02:47 42.3 °F 35.6 °F 30.05 in Calm   2.0 mph 77% 0.00 in 0.00 W/m2
02:52 42.2 °F 35.8 °F 30.05 in Calm     78% 0.00 in 0.00 W/m2
02:57 42.2 °F 35.8 °F 30.05 in SSE 4.0 mph 4.0 mph 78% 0.00 in 0.00 W/m2
03:02 42.2 °F 35.8 °F 30.05 in Calm     78% 0.00 in 0.00 W/m2
03:07 42.2 °F 35.8 °F 30.06 in Calm   7.0 mph 78% 0.00 in 0.00 W/m2
03:12 42.2 °F 36.2 °F 30.06 in Calm   8.0 mph 79% 0.00 in 0.00 W/m2
03:17 42.2 °F 36.2 °F 30.06 in Calm     79% 0.00 in 0.00 W/m2
03:22 42.1 °F 36.1 °F 30.07 in Calm     79% 0.00 in 0.00 W/m2
03:27 42.1 °F 36.1 °F 30.06 in Calm     79% 0.00 in 0.00 W/m2
03:32 42.0 °F 36.0 °F 30.07 in Calm     79% 0.00 in 0.00 W/m2
03:37 41.9 °F 35.9 °F 30.07 in Calm     79% 0.00 in 0.00 W/m2
03:42 41.9 °F 36.2 °F 30.07 in Calm     80% 0.00 in 0.00 W/m2
03:47 41.8 °F 36.1 °F 30.07 in SSE 1.0 mph 6.0 mph 80% 0.00 in 0.00 W/m2
03:52 41.7 °F 36.0 °F 30.07 in South 4.0 mph 7.0 mph 80% 0.00 in 0.00 W/m2
03:57 41.6 °F 36.2 °F 30.07 in Calm     81% 0.00 in 0.00 W/m2
04:02 41.5 °F 36.4 °F 30.07 in Calm     82% 0.00 in 0.00 W/m2
04:07 41.4 °F 36.6 °F 30.07 in Calm     83% 0.00 in 0.00 W/m2
04:12 41.3 °F 36.5 °F 30.07 in Calm     83% 0.00 in 0.00 W/m2
04:17 41.2 °F 36.4 °F 30.07 in Calm     83% 0.00 in 0.00 W/m2
04:22 41.1 °F 36.3 °F 30.07 in Calm     83% 0.00 in 0.00 W/m2
04:27 41.1 °F 36.3 °F 30.07 in Calm     83% 0.00 in 0.00 W/m2
04:32 41.0 °F 36.2 °F 30.07 in Calm     83% 0.00 in 0.00 W/m2
04:37 40.9 °F 36.1 °F 30.07 in Calm     83% 0.00 in 0.00 W/m2
04:42 40.8 °F 36.3 °F 30.07 in Calm     84% 0.00 in 0.00 W/m2
04:47 40.7 °F 36.2 °F 30.07 in Calm     84% 0.00 in 0.00 W/m2
04:52 40.7 °F 36.2 °F 30.07 in Calm   2.0 mph 84% 0.00 in 0.00 W/m2
04:57 40.7 °F 36.2 °F 30.07 in Calm     84% 0.00 in 0.00 W/m2
05:02 40.6 °F 36.5 °F 30.07 in Calm     85% 0.00 in 0.00 W/m2
05:07 40.6 °F 36.5 °F 30.07 in Calm     85% 0.00 in 0.00 W/m2
05:12 40.5 °F 36.3 °F 30.07 in Calm     85% 0.00 in 0.00 W/m2
05:17 40.5 °F 36.3 °F 30.07 in Calm   5.0 mph 85% 0.00 in 0.00 W/m2
05:18 40.5 °F 36.3 °F 30.07 in SSE 5.0 mph 5.0 mph 85% 0.00 in 0.00 W/m2
05:23 40.5 °F 36.3 °F 30.07 in Calm     85% 0.00 in 0.00 W/m2
05:28 40.4 °F 36.3 °F 30.07 in Calm   5.0 mph 85% 0.00 in 0.00 W/m2
05:33 40.4 °F 36.3 °F 30.07 in Calm     85% 0.00 in 0.00 W/m2
05:38 40.4 °F 36.3 °F 30.07 in Calm     85% 0.00 in 0.00 W/m2
05:43 40.4 °F 36.3 °F 30.07 in Calm     85% 0.00 in 0.00 W/m2
05:48 40.3 °F 36.2 °F 30.07 in Calm     85% 0.00 in 5.00 W/m2
05:53 40.2 °F 36.1 °F 30.07 in Calm   2.0 mph 85% 0.00 in 5.00 W/m2
05:58 40.2 °F 36.1 °F 30.07 in Calm   5.0 mph 85% 0.00 in 9.00 W/m2
06:03 40.1 °F 36.0 °F 30.07 in Calm   4.0 mph 85% 0.00 in 11.00 W/m2
06:08 40.1 °F 36.0 °F 30.08 in Calm   1.0 mph 85% 0.00 in 14.00 W/m2
06:13 40.1 °F 36.0 °F 30.08 in Calm   4.0 mph 85% 0.00 in 18.00 W/m2
06:18 40.1 °F 36.0 °F 30.07 in Calm   4.0 mph 85% 0.00 in 23.00 W/m2
06:23 40.1 °F 36.3 °F 30.08 in Calm     86% 0.00 in 32.00 W/m2
06:28 40.1 °F 36.3 °F 30.07 in Calm   4.0 mph 86% 0.00 in 44.00 W/m2
06:33 40.1 °F 36.3 °F 30.08 in SSE 1.0 mph 5.0 mph 86% 0.00 in 56.00 W/m2
06:38 40.1 °F 36.3 °F 30.07 in Calm   6.0 mph 86% 0.00 in 67.00 W/m2
06:43 40.1 °F 36.3 °F 30.07 in SE 5.0 mph 6.0 mph 86% 0.00 in 81.00 W/m2
06:48 40.1 °F 36.3 °F 30.07 in Calm   7.0 mph 86% 0.00 in 93.00 W/m2
06:53 40.1 °F 36.3 °F 30.08 in Calm   6.0 mph 86% 0.00 in 107.00 W/m2
06:58 40.2 °F 36.3 °F 30.08 in Calm   5.0 mph 86% 0.00 in 127.00 W/m2
07:03 40.2 °F 36.3 °F 30.08 in Calm     86% 0.00 in 146.00 W/m2
07:08 40.3 °F 36.5 °F 30.08 in Calm   8.0 mph 86% 0.00 in 165.00 W/m2
07:11 40.4 °F 36.5 °F 30.08 in ESE 2.0 mph 6.0 mph 86% 0.00 in 176.00 W/m2
07:16 40.4 °F 36.5 °F 30.08 in Calm   4.0 mph 86% 0.00 in 199.00 W/m2
07:21 40.5 °F 36.7 °F 30.08 in Calm     86% 0.00 in 218.00 W/m2
07:26 40.6 °F 36.8 °F 30.08 in ESE 2.0 mph 5.0 mph 86% 0.00 in 241.00 W/m2
07:31 40.7 °F 36.5 °F 30.08 in Calm   5.0 mph 85% 0.00 in 262.00 W/m2
07:36 40.9 °F 37.0 °F 30.08 in Calm   5.0 mph 86% 0.00 in 283.00 W/m2
07:37 40.9 °F 37.0 °F 30.08 in ESE 2.0 mph 5.0 mph 86% 0.00 in 283.00 W/m2
07:42 41.1 °F 37.2 °F 30.08 in Calm     86% 0.00 in 301.00 W/m2
07:47 41.2 °F 37.3 °F 30.08 in Calm     86% 0.00 in 320.00 W/m2
07:52 41.3 °F 37.4 °F 30.09 in Calm     86% 0.00 in 338.00 W/m2
07:57 41.5 °F 37.6 °F 30.08 in Calm     86% 0.00 in 355.00 W/m2
08:02 41.7 °F 37.8 °F 30.08 in Calm     86% 0.00 in 371.00 W/m2
08:07 41.9 °F 37.7 °F 30.09 in Calm     85% 0.00 in 387.00 W/m2
08:12 42.0 °F 37.8 °F 30.08 in Calm     85% 0.00 in 404.00 W/m2
08:17 42.2 °F 37.7 °F 30.08 in ESE 2.0 mph 2.0 mph 84% 0.00 in 420.00 W/m2
08:22 42.4 °F 37.6 °F 30.08 in Calm     83% 0.00 in 438.00 W/m2
08:27 42.6 °F 37.5 °F 30.08 in Calm     82% 0.00 in 455.00 W/m2
08:32 42.8 °F 37.4 °F 30.08 in Calm   2.0 mph 81% 0.00 in 471.00 W/m2
08:37 43.1 °F 37.7 °F 30.08 in Calm     81% 0.00 in 487.00 W/m2
08:42 43.3 °F 37.6 °F 30.08 in Calm     80% 0.00 in 503.00 W/m2
08:47 43.7 °F 37.6 °F 30.09 in Calm   4.0 mph 79% 0.00 in 520.00 W/m2
08:52 44.1 °F 37.7 °F 30.09 in Calm     78% 0.00 in 534.00 W/m2
08:57 44.5 °F 38.1 °F 30.09 in Calm     78% 0.00 in 552.00 W/m2
09:02 44.9 °F 38.1 °F 30.09 in Calm     77% 0.00 in 568.00 W/m2
09:07 45.2 °F 38.1 °F 30.09 in Calm     76% 0.00 in 582.00 W/m2
09:12 45.4 °F 38.3 °F 30.09 in Calm     76% 0.00 in 601.00 W/m2
09:17 45.7 °F 38.9 °F 30.09 in ESE 4.0 mph 5.0 mph 77% 0.00 in 612.00 W/m2
09:22 46.0 °F 39.2 °F 30.09 in Calm     77% 0.00 in 629.00 W/m2
09:23 46.1 °F 39.3 °F 30.09 in Calm   2.0 mph 77% 0.00 in 636.00 W/m2
09:28 46.4 °F 39.3 °F 30.09 in Calm   4.0 mph 76% 0.00 in 652.00 W/m2
09:33 46.7 °F 39.5 °F 30.09 in Calm   3.0 mph 76% 0.00 in 671.00 W/m2
09:38 46.9 °F 39.4 °F 30.09 in Calm   4.0 mph 75% 0.00 in 759.00 W/m2
09:43 47.1 °F 39.2 °F 30.09 in Calm   4.0 mph 74% 0.00 in 721.00 W/m2
09:48 47.3 °F 39.5 °F 30.09 in NNW 4.0 mph 6.0 mph 74% 0.00 in 777.00 W/m2
09:54 47.5 °F 39.3 °F 30.09 in Calm   7.0 mph 73% 0.00 in 819.00 W/m2
09:59 47.6 °F 39.0 °F 30.09 in WNW 5.0 mph 5.0 mph 72% 0.00 in 773.00 W/m2
10:04 47.7 °F 38.8 °F 30.09 in WNW 1.0 mph 9.0 mph 71% 0.00 in 552.00 W/m2
10:09 47.7 °F 38.4 °F 30.09 in Calm   7.0 mph 70% 0.00 in 777.00 W/m2
10:14 47.8 °F 38.1 °F 30.09 in Calm   8.0 mph 69% 0.00 in 782.00 W/m2
10:19 48.0 °F 37.6 °F 30.09 in NW 5.0 mph 8.0 mph 67% 0.00 in 793.00 W/m2
10:24 48.2 °F 37.8 °F 30.09 in Calm   11.0 mph 67% 0.00 in 798.00 W/m2
10:29 48.6 °F 38.5 °F 30.09 in WNW 4.0 mph 12.0 mph 68% 0.00 in 814.00 W/m2
10:34 48.9 °F 38.1 °F 30.09 in NW 1.0 mph 6.0 mph 66% 0.00 in 870.00 W/m2
10:39 49.1 °F 38.6 °F 30.09 in Calm   3.0 mph 67% 0.00 in 846.00 W/m2
10:44 49.4 °F 38.1 °F 30.09 in NNW 1.0 mph 10.0 mph 65% 0.00 in 856.00 W/m2
10:49 49.7 °F 38.0 °F 30.09 in Calm   6.0 mph 64% 0.00 in 856.00 W/m2
10:54 49.9 °F 37.0 °F 30.09 in NNW 4.0 mph 8.0 mph 61% 0.00 in 863.00 W/m2
10:59 50.2 °F 37.7 °F 30.09 in Calm   6.0 mph 62% 0.00 in 891.00 W/m2
11:04 50.5 °F 37.2 °F 30.09 in WNW 3.0 mph 7.0 mph 60% 0.00 in 925.00 W/m2
11:09 50.8 °F 36.6 °F 30.09 in Calm   10.0 mph 58% 0.00 in 933.00 W/m2
11:14 51.0 °F 36.3 °F 30.09 in West 5.0 mph 8.0 mph 57% 0.00 in 1000.00 W/m2
11:19 51.1 °F 36.4 °F 30.09 in Calm   7.0 mph 57% 0.00 in 211.00 W/m2
11:24 51.3 °F 37.0 °F 30.09 in WSW 5.0 mph 8.0 mph 58% 0.00 in 933.00 W/m2
11:29 51.4 °F 36.2 °F 30.09 in NW 1.0 mph 7.0 mph 56% 0.00 in 958.00 W/m2
11:34 51.7 °F 36.1 °F 30.09 in Calm   6.0 mph 55% 0.00 in 954.00 W/m2
11:39 51.9 °F 36.3 °F 30.09 in Calm   2.0 mph 55% 0.00 in 1004.00 W/m2
11:44 52.2 °F 36.5 °F 30.09 in Calm   6.0 mph 55% 0.00 in 967.00 W/m2
11:49 52.5 °F 35.4 °F 30.09 in WNW 4.0 mph 7.0 mph 52% 0.00 in 965.00 W/m2
11:54 52.7 °F 35.1 °F 30.09 in NW 5.0 mph 10.0 mph 51% 0.00 in 953.00 W/m2
11:59 52.9 °F 36.2 °F 30.09 in Calm   9.0 mph 53% 0.00 in 967.00 W/m2
12:04 53.2 °F 37.5 °F 30.09 in Calm   9.0 mph 55% 0.00 in 998.00 W/m2
12:09 53.5 °F 37.3 °F 30.08 in Calm   6.0 mph 54% 0.00 in 1023.00 W/m2
12:11 53.6 °F 38.8 °F 30.09 in Calm   9.0 mph 57% 0.00 in 1048.00 W/m2
12:16 54.0 °F 37.3 °F 30.09 in Calm   3.0 mph 53% 0.00 in 991.00 W/m2
12:21 54.1 °F 37.4 °F 30.09 in Calm     53% 0.00 in 1056.00 W/m2
12:26 54.1 °F 36.9 °F 30.09 in Calm   5.0 mph 52% 0.00 in 230.00 W/m2
12:31 54.2 °F 38.4 °F 30.09 in West 5.0 mph 5.0 mph 55% 0.00 in 1005.00 W/m2
12:35 54.5 °F 37.2 °F 30.08 in Calm   10.0 mph 52% 0.00 in 976.00 W/m2
12:40 54.8 °F 38.0 °F 30.08 in WNW 2.0 mph 7.0 mph 53% 0.00 in 1021.00 W/m2
12:45 55.3 °F 37.5 °F 30.08 in Calm   12.0 mph 51% 0.00 in 977.00 W/m2
12:50 55.3 °F 36.0 °F 30.08 in WNW 3.0 mph 6.0 mph 48% 0.00 in 972.00 W/m2
12:51 55.3 °F 36.0 °F 30.08 in Calm   1.0 mph 48% 0.00 in 972.00 W/m2
12:56 55.2 °F 35.9 °F 30.08 in Calm     48% 0.00 in 972.00 W/m2
13:01 55.1 °F 35.2 °F 30.08 in WNW 4.0 mph 4.0 mph 47% 0.00 in 967.00 W/m2
13:06 55.1 °F 35.2 °F 30.08 in NW 5.0 mph 6.0 mph 47% 0.00 in 972.00 W/m2
13:11 55.2 °F 35.3 °F 30.08 in NW 5.0 mph 5.0 mph 47% 0.00 in 967.00 W/m2
13:16 55.4 °F 36.1 °F 30.08 in North 1.0 mph 1.0 mph 48% 0.00 in 963.00 W/m2
13:21 55.8 °F 35.3 °F 30.08 in West 4.0 mph 4.0 mph 46% 0.00 in 962.00 W/m2
13:26 56.3 °F 35.8 °F 30.08 in Calm     46% 0.00 in 960.00 W/m2
13:31 56.8 °F 35.7 °F 30.08 in WNW 1.0 mph 2.0 mph 45% 0.00 in 960.00 W/m2
13:36 57.4 °F 35.7 °F 30.08 in West 4.0 mph 4.0 mph 44% 0.00 in 956.00 W/m2
13:41 57.6 °F 36.4 °F 30.08 in Calm   1.0 mph 45% 0.00 in 953.00 W/m2
13:46 58.0 °F 36.2 °F 30.07 in WSW 3.0 mph 5.0 mph 44% 0.00 in 949.00 W/m2
13:51 58.1 °F 33.9 °F 30.08 in Calm   1.0 mph 40% 0.00 in 946.00 W/m2
13:56 57.6 °F 34.7 °F 30.07 in Calm     42% 0.00 in 942.00 W/m2
14:01 57.5 °F 34.6 °F 30.07 in NW 2.0 mph 7.0 mph 42% 0.00 in 935.00 W/m2
14:06 57.2 °F 34.3 °F 30.07 in NW 2.0 mph 3.0 mph 42% 0.00 in 930.00 W/m2
14:11 57.4 °F 33.3 °F 30.07 in WSW 1.0 mph 1.0 mph 40% 0.00 in 926.00 W/m2
14:16 57.3 °F 33.2 °F 30.07 in Calm   2.0 mph 40% 0.00 in 923.00 W/m2
14:21 57.1 °F 33.0 °F 30.06 in WSW 4.0 mph 8.0 mph 40% 0.00 in 912.00 W/m2
14:26 57.3 °F 33.8 °F 30.06 in WNW 4.0 mph 4.0 mph 41% 0.00 in 904.00 W/m2
14:31 56.8 °F 31.5 °F 30.06 in West 1.0 mph 5.0 mph 38% 0.00 in 896.00 W/m2
14:36 56.6 °F 32.6 °F 30.06 in West 7.0 mph 7.0 mph 40% 0.00 in 888.00 W/m2
14:41 56.6 °F 32.0 °F 30.06 in NW 3.0 mph 6.0 mph 39% 0.00 in 882.00 W/m2
14:46 56.6 °F 30.6 °F 30.07 in NW 7.0 mph 8.0 mph 37% 0.00 in 877.00 W/m2
14:51 56.5 °F 32.5 °F 30.06 in SW 6.0 mph 6.0 mph 40% 0.00 in 865.00 W/m2
14:56 56.7 °F 32.0 °F 30.06 in WNW 2.0 mph 4.0 mph 39% 0.00 in 861.00 W/m2
15:01 56.8 °F 32.1 °F 30.06 in West 7.0 mph 7.0 mph 39% 0.00 in 849.00 W/m2
15:06 57.1 °F 30.4 °F 30.06 in Calm     36% 0.00 in 840.00 W/m2
15:11 57.3 °F 29.9 °F 30.06 in Calm     35% 0.00 in 828.00 W/m2
15:16 57.3 °F 30.6 °F 30.06 in Calm   4.0 mph 36% 0.00 in 823.00 W/m2
15:21 57.4 °F 30.0 °F 30.05 in Calm     35% 0.00 in 809.00 W/m2
15:26 57.5 °F 29.4 °F 30.05 in NW 4.0 mph 6.0 mph 34% 0.00 in 802.00 W/m2
15:31 57.3 °F 28.5 °F 30.05 in Calm     33% 0.00 in 789.00 W/m2
15:36 57.2 °F 29.8 °F 30.05 in Calm   4.0 mph 35% 0.00 in 775.00 W/m2
15:41 57.1 °F 27.5 °F 30.05 in WNW 3.0 mph 4.0 mph 32% 0.00 in 765.00 W/m2
15:46 57.1 °F 27.5 °F 30.04 in NW 3.0 mph 5.0 mph 32% 0.00 in 754.00 W/m2
15:51 57.0 °F 28.9 °F 30.04 in NW 4.0 mph 8.0 mph 34% 0.00 in 738.00 W/m2
15:56 56.9 °F 28.8 °F 30.03 in NNW 6.0 mph 9.0 mph 34% 0.00 in 728.00 W/m2
16:01 56.9 °F 28.8 °F 30.03 in NW 1.0 mph 3.0 mph 34% 0.00 in 715.00 W/m2
16:06 56.9 °F 29.5 °F 30.03 in NNW 5.0 mph 8.0 mph 35% 0.00 in 703.00 W/m2
16:11 56.9 °F 30.2 °F 30.03 in WSW 5.0 mph 6.0 mph 36% 0.00 in 689.00 W/m2
16:16 57.1 °F 30.4 °F 30.03 in Calm     36% 0.00 in 673.00 W/m2
16:21 57.2 °F 29.1 °F 30.02 in Calm     34% 0.00 in 659.00 W/m2
16:26 57.3 °F 30.6 °F 30.02 in NNW 4.0 mph 7.0 mph 36% 0.00 in 643.00 W/m2
16:31 57.4 °F 27.8 °F 30.02 in WNW 2.0 mph 6.0 mph 32% 0.00 in 628.00 W/m2
16:36 57.4 °F 27.8 °F 30.02 in West 3.0 mph 7.0 mph 32% 0.00 in 612.00 W/m2
16:41 57.5 °F 28.6 °F 30.02 in Calm     33% 0.00 in 601.00 W/m2
16:46 57.4 °F 29.3 °F 30.02 in Calm     34% 0.00 in 582.00 W/m2
16:51 57.4 °F 29.3 °F 30.02 in NNW 8.0 mph 10.0 mph 34% 0.00 in 564.00 W/m2
16:56 57.3 °F 29.2 °F 30.01 in NNW 1.0 mph 9.0 mph 34% 0.00 in 552.00 W/m2
17:01 57.2 °F 29.1 °F 30.01 in Calm     34% 0.00 in 536.00 W/m2
17:06 57.1 °F 31.1 °F 30.01 in NNW 4.0 mph 7.0 mph 37% 0.00 in 517.00 W/m2
17:11 57.1 °F 32.4 °F 30.01 in Calm   5.0 mph 39% 0.00 in 497.00 W/m2
17:16 57.0 °F 31.7 °F 30.01 in NW 6.0 mph 7.0 mph 38% 0.00 in 485.00 W/m2
17:22 57.0 °F 31.7 °F 30.01 in NNW 5.0 mph 7.0 mph 38% 0.00 in 471.00 W/m2
17:27 56.9 °F 31.6 °F 30.01 in Calm   7.0 mph 38% 0.00 in 450.00 W/m2
17:32 56.9 °F 30.9 °F 30.01 in West 4.0 mph 8.0 mph 37% 0.00 in 436.00 W/m2
17:37 56.8 °F 30.8 °F 30.01 in West 1.0 mph 6.0 mph 37% 0.00 in 420.00 W/m2
17:47 56.7 °F 30.7 °F 30.01 in NW 5.0 mph 10.0 mph 37% 0.00 in 387.00 W/m2
17:52 56.5 °F 29.9 °F 30.00 in West 3.0 mph 7.0 mph 36% 0.00 in 367.00 W/m2
17:57 56.5 °F 30.6 °F 30.00 in NW 2.0 mph 7.0 mph 37% 0.00 in 352.00 W/m2
18:02 56.4 °F 31.1 °F 30.00 in Calm   6.0 mph 38% 0.00 in 338.00 W/m2
18:07 56.4 °F 29.8 °F 30.00 in NW 3.0 mph 7.0 mph 36% 0.00 in 318.00 W/m2
18:12 56.3 °F 30.4 °F 30.00 in NW 3.0 mph 6.0 mph 37% 0.00 in 301.00 W/m2
18:17 56.1 °F 30.2 °F 30.00 in NW 5.0 mph 8.0 mph 37% 0.00 in 281.00 W/m2
18:22 55.8 °F 29.9 °F 30.00 in WNW 4.0 mph 5.0 mph 37% 0.00 in 264.00 W/m2
18:27 55.8 °F 30.6 °F 30.00 in Calm     38% 0.00 in 251.00 W/m2
18:32 55.7 °F 30.5 °F 30.00 in Calm   3.0 mph 38% 0.00 in 236.00 W/m2
18:37 55.6 °F 31.7 °F 29.99 in Calm   3.0 mph 40% 0.00 in 218.00 W/m2
18:42 55.4 °F 30.2 °F 29.99 in Calm   6.0 mph 38% 0.00 in 202.00 W/m2
18:47 55.3 °F 30.1 °F 29.99 in Calm   4.0 mph 38% 0.00 in 183.00 W/m2
18:52 55.2 °F 31.9 °F 29.99 in West 3.0 mph 4.0 mph 41% 0.00 in 165.00 W/m2
18:57 55.1 °F 31.8 °F 29.99 in West 2.0 mph 2.0 mph 41% 0.00 in 144.00 W/m2
19:02 55.1 °F 31.8 °F 29.99 in WNW 4.0 mph 4.0 mph 41% 0.00 in 127.00 W/m2
19:07 55.0 °F 32.3 °F 29.99 in Calm   4.0 mph 42% 0.00 in 107.00 W/m2
19:12 54.9 °F 34.5 °F 29.99 in Calm     46% 0.00 in 90.00 W/m2
19:17 54.8 °F 34.4 °F 29.99 in Calm     46% 0.00 in 76.00 W/m2
19:22 54.6 °F 35.3 °F 29.99 in Calm     48% 0.00 in 60.00 W/m2
19:27 54.5 °F 35.2 °F 29.99 in Calm     48% 0.00 in 44.00 W/m2
19:32 54.3 °F 35.0 °F 29.99 in Calm     48% 0.00 in 33.00 W/m2
19:37 54.1 °F 34.9 °F 29.99 in Calm     48% 0.00 in 30.00 W/m2
19:42 53.8 °F 34.6 °F 29.99 in Calm     48% 0.00 in 21.00 W/m2
19:47 53.5 °F 34.3 °F 29.99 in Calm     48% 0.00 in 18.00 W/m2
19:52 53.0 °F 34.4 °F 29.99 in Calm     49% 0.00 in 14.00 W/m2
19:57 52.6 °F 34.0 °F 29.99 in Calm     49% 0.00 in 11.00 W/m2
20:02 52.3 °F 33.7 °F 29.99 in Calm     49% 0.00 in 9.00 W/m2
20:07 52.0 °F 33.5 °F 29.99 in Calm     49% 0.00 in 5.00 W/m2
20:12 51.6 °F 33.1 °F 29.99 in Calm     49% 0.00 in 0.00 W/m2
20:17 51.3 °F 33.3 °F 29.99 in Calm     50% 0.00 in 0.00 W/m2
20:22 50.8 °F 33.8 °F 29.99 in Calm     52% 0.00 in 0.00 W/m2
20:27 50.3 °F 33.8 °F 29.99 in Calm     53% 0.00 in 0.00 W/m2
20:32 49.8 °F 32.9 °F 29.99 in Calm     52% 0.00 in 0.00 W/m2
20:37 49.3 °F 32.9 °F 29.99 in WNW 2.0 mph 5.0 mph 53% 0.00 in 0.00 W/m2
20:42 49.0 °F 32.6 °F 29.99 in WNW 3.0 mph 3.0 mph 53% 0.00 in 0.00 W/m2
20:47 48.6 °F 32.3 °F 29.99 in WNW 1.0 mph 3.0 mph 53% 0.00 in 0.00 W/m2
20:52 48.3 °F 32.0 °F 29.99 in Calm   3.0 mph 53% 0.00 in 0.00 W/m2
20:57 47.9 °F 31.6 °F 29.99 in Calm     53% 0.00 in 0.00 W/m2
21:02 47.6 °F 30.9 °F 29.99 in Calm     52% 0.00 in 0.00 W/m2
21:08 47.4 °F 30.7 °F 29.99 in Calm     52% 0.00 in 0.00 W/m2
21:13 47.2 °F 31.0 °F 29.99 in Calm     53% 0.00 in 0.00 W/m2
21:18 47.0 °F 31.2 °F 29.99 in Calm     54% 0.00 in 0.00 W/m2
21:23 46.8 °F 30.6 °F 29.99 in Calm     53% 0.00 in 0.00 W/m2
21:28 46.7 °F 30.5 °F 29.99 in Calm     53% 0.00 in 0.00 W/m2
21:33 46.6 °F 30.9 °F 29.99 in Calm     54% 0.00 in 0.00 W/m2
21:38 46.5 °F 30.3 °F 29.99 in Calm     53% 0.00 in 0.00 W/m2
21:43 46.3 °F 29.6 °F 29.99 in WNW 1.0 mph 3.0 mph 52% 0.00 in 0.00 W/m2
21:48 46.2 °F 30.0 °F 29.99 in Calm   3.0 mph 53% 0.00 in 0.00 W/m2
21:53 46.1 °F 29.9 °F 29.99 in Calm     53% 0.00 in 0.00 W/m2
21:58 46.0 °F 29.8 °F 29.99 in Calm     53% 0.00 in 0.00 W/m2
22:03 45.9 °F 30.2 °F 29.99 in Calm     54% 0.00 in 0.00 W/m2
22:08 45.9 °F 30.2 °F 29.99 in Calm     54% 0.00 in 0.00 W/m2
22:13 45.8 °F 31.0 °F 29.99 in Calm     56% 0.00 in 0.00 W/m2
22:18 45.7 °F 30.5 °F 29.99 in Calm     55% 0.00 in 0.00 W/m2
22:23 45.7 °F 30.0 °F 29.99 in Calm     54% 0.00 in 0.00 W/m2
22:28 45.6 °F 30.8 °F 29.99 in Calm     56% 0.00 in 0.00 W/m2
22:33 45.5 °F 30.7 °F 29.99 in Calm     56% 0.00 in 0.00 W/m2
22:38 45.4 °F 30.2 °F 29.98 in Calm     55% 0.00 in 0.00 W/m2
22:43 45.3 °F 30.5 °F 29.98 in Calm     56% 0.00 in 0.00 W/m2
22:48 45.3 °F 30.1 °F 29.98 in Calm     55% 0.00 in 0.00 W/m2
22:53 45.2 °F 30.9 °F 29.98 in Calm     57% 0.00 in 0.00 W/m2
22:54 45.2 °F 30.9 °F 29.98 in Calm     57% 0.00 in 0.00 W/m2
22:59 45.2 °F 30.9 °F 29.98 in Calm   2.0 mph 57% 0.00 in 0.00 W/m2
23:04 45.2 °F 30.9 °F 29.98 in Calm   4.0 mph 57% 0.00 in 0.00 W/m2
23:09 45.1 °F 30.8 °F 29.98 in Calm     57% 0.00 in 0.00 W/m2
23:14 45.0 °F 30.7 °F 29.98 in Calm     57% 0.00 in 0.00 W/m2
23:19 45.0 °F 30.7 °F 29.98 in Calm     57% 0.00 in 0.00 W/m2
23:24 45.0 °F 31.1 °F 29.98 in Calm     58% 0.00 in 0.00 W/m2
23:29 45.0 °F 30.7 °F 29.98 in Calm     57% 0.00 in 0.00 W/m2
23:34 45.0 °F 30.7 °F 29.98 in Calm     57% 0.00 in 0.00 W/m2
23:39 45.0 °F 30.7 °F 29.98 in Calm     57% 0.00 in 0.00 W/m2
23:44 44.9 °F 30.6 °F 29.98 in Calm     57% 0.00 in 0.00 W/m2
23:49 44.9 °F 30.2 °F 29.98 in NW 2.0 mph 3.0 mph 56% 0.00 in 0.00 W/m2
23:54 44.8 °F 30.5 °F 29.98 in Calm   4.0 mph 57% 0.00 in 0.00 W/m2
23:59 44.7 °F 30.9 °F 29.98 in Calm   3.0 mph 58% 0.00 in 0.00 W/m2
Foresthill Weather
 WU-history PHP script courtesy of   Juneau County Weather.
powered by Cumulus v1.9.3 (1059)
Ambient Weather VWS v14.00
Top Contact Website Map Copyright © 2007 - 2018 Foresthillweather.com Never base important decisions on this or any weather information obtained from the Internet